Regional Weather Roundup
Issued by NWS

Home | Current Version | Previous Version | Graphics & Text | Print | Product List | Glossary On
Versions: 1 2 3 4 5 6 7 8 9 10 11 12 13 14 15 16 17 18 19 20 21 22 23 24 25 26 27 28 29 30 31 32 33 34 35 36 37 38 39 40 41 42 43 44 45 46 47 48 49 50
000
ASUS44 KMEG 271110
RWRTN
TENNESSEE HOURLY STATE WEATHER ROUNDUP
NATIONAL WEATHER SERVICE MEMPHIS TN
600 AM CDT FRI MAY 27 2016

TNZ002-004-019-021-049-052-054-088>092-271200-
WEST TENNESSEE

CITY           SKY/WX    TMP DP  RH WIND       PRES   REMARKS
MEMPHIS INTL   CLOUDY    74  68  81 S9        29.90F
NWS MEMPHIS      N/A     71 N/A N/A MISG        N/A
JACKSON        CLOUDY    70  64  81 S9        29.95R
DYERSBURG      CLOUDY    70  64  83 S7        29.92F
UNION CITY     CLEAR     68  66  94 SE9       29.92S
PARIS          CLEAR     66  63  88 SE9       29.96S
LEXINGTON      CLEAR     66  64  94 SE5       29.98R
$$

TNZ008-025-027-028-033-062-065-066-271200-
NORTH MIDDLE TENNESSEE

CITY           SKY/WX    TMP DP  RH WIND       PRES   REMARKS
NASHVILLE      CLOUDY    65  62  90 S3        30.04R
CLARKSVILLE    CLOUDY    65  63  93 SE5       30.00R
SMYRNA         CLOUDY    63  63 100 CALM      30.05R
COOKEVILLE     CLEAR     59  59 100 CALM      30.07R
CROSSVILLE     CLEAR     62  59  90 CALM      30.13R FOG
$$

TNZ061-075-076-078-094-096-097-271200-
SOUTH MIDDLE TENNESSEE

CITY           SKY/WX    TMP DP  RH WIND       PRES   REMARKS
FAYETTEVILLE   MOCLDY    70  63  78 S5        30.07R
TULLAHOMA      CLEAR     63  63 100 CALM      30.08R
WINCHESTER     CLEAR     64  61  88 SE3       30.08R
MCMINNVILLE    CLEAR     63  63 100 CALM      30.07R
COLUMBIA       CLEAR    N/A N/A N/A S6        30.02R
SHELBYVILLE    CLEAR     68  63  83 CALM      30.06R
$$

TNZ017-018-042-046-047-271200-
NORTHEAST TENNESSEE

CITY           SKY/WX    TMP DP  RH WIND       PRES   REMARKS
TRI CITIES     MOCLDY    58  57  97 CALM      30.14S FOG
$$

TNZ012-013-036-069-073-074-271200-
CENTRAL EAST TENNESSEE

CITY           SKY/WX    TMP DP  RH WIND       PRES   REMARKS
KNOXVILLE      MOCLDY    65  63  93 N6        30.10R
OAK RIDGE      CLEAR     63  61  93 CALM      30.12R
GATLINBURG     CLEAR     61  61 100 CALM      30.11R
$$

TNZ083-085-099-271200-
SOUTHEAST TENNESSEE

CITY           SKY/WX    TMP DP  RH WIND       PRES   REMARKS
CHATTANOOGA    MOCLDY    65  61  87 CALM      30.08R
$$

SKY/WX REPORTED AS FAIR MEANS FEW OR NO CLOUDS BELOW
12 THOUSAND FEET.





USA.gov is the U.S. government's official web portal to all federal, state and local government web resources and services.